TimePST,TemperatureF,Dew PointF,Humidity,Sea Level PressureIn,VisibilityMPH,Wind Direction,Wind SpeedMPH,Gust SpeedMPH,PrecipitationIn,Events,Conditions,WindDirDegrees,DateUTC
12:54 AM,-9999,-9999,N/A,30.17,-9999.0,North,-9999.0,-,N/A,,Unknown,0,2012-11-11 08:54:00
1:54 AM,-9999,-9999,N/A,30.18,-9999.0,North,-9999.0,-,N/A,,Unknown,0,2012-11-11 09:54:00
2:54 AM,-9999,-9999,N/A,30.18,-9999.0,North,-9999.0,-,N/A,,Unknown,0,2012-11-11 10:54:00
3:54 AM,-9999,-9999,N/A,30.20,-9999.0,North,-9999.0,-,N/A,,Unknown,0,2012-11-11 11:54:00
4:54 AM,-9999,-9999,N/A,30.21,-9999.0,North,-9999.0,-,N/A,,Unknown,0,2012-11-11 12:54:00
5:54 AM,-9999,-9999,N/A,30.23,-9999.0,North,-9999.0,-,N/A,,Unknown,0,2012-11-11 13:54:00
6:54 AM,-9999,-9999,N/A,30.25,-9999.0,North,-9999.0,-,N/A,,Unknown,0,2012-11-11 14:54:00
8:54 AM,-9999,-9999,N/A,30.28,-9999.0,North,-9999.0,-,N/A,,Unknown,0,2012-11-11 16:54:00
9:54 AM,-9999,-9999,N/A,30.28,-9999.0,North,-9999.0,-,N/A,,Unknown,0,2012-11-11 17:54:00
10:54 AM,-9999,-9999,N/A,30.27,-9999.0,North,-9999.0,-,N/A,,Unknown,0,2012-11-11 18:54:00
11:54 AM,-9999,-9999,N/A,30.25,-9999.0,North,-9999.0,-,N/A,,Unknown,0,2012-11-11 19:54:00
12:54 PM,-9999,-9999,N/A,30.22,-9999.0,North,-9999.0,-,N/A,,Unknown,0,2012-11-11 20:54:00
1:54 PM,-9999,-9999,N/A,30.20,-9999.0,North,-9999.0,-,N/A,,Unknown,0,2012-11-11 21:54:00
2:54 PM,-9999,-9999,N/A,30.19,-9999.0,North,-9999.0,-,N/A,,Unknown,0,2012-11-11 22:54:00
3:54 PM,-9999,-9999,N/A,30.20,-9999.0,North,-9999.0,-,N/A,,Unknown,0,2012-11-11 23:54:00
4:54 PM,-9999,-9999,N/A,30.22,-9999.0,North,-9999.0,-,N/A,,Unknown,0,2012-11-12 00:54:00
5:54 PM,-9999,-9999,N/A,30.25,-9999.0,North,-9999.0,-,N/A,,Unknown,0,2012-11-12 01:54:00
6:54 PM,-9999,-9999,N/A,30.27,-9999.0,North,-9999.0,-,N/A,,Unknown,0,2012-11-12 02:54:00
7:54 PM,-9999,-9999,N/A,30.29,-9999.0,North,-9999.0,-,N/A,,Unknown,0,2012-11-12 03:54:00
8:54 PM,-9999,-9999,N/A,30.30,-9999.0,North,-9999.0,-,N/A,,Unknown,0,2012-11-12 04:54:00
9:54 PM,-9999,-9999,N/A,30.27,-9999.0,North,-9999.0,-,N/A,,Unknown,0,2012-11-12 05:54:00
10:54 PM,-9999,-9999,N/A,30.25,-9999.0,North,-9999.0,-,N/A,,Unknown,0,2012-11-12 06:54:00
11:54 PM,-9999,-9999,N/A,30.24,-9999.0,North,-9999.0,-,N/A,,Unknown,0,2012-11-12 07:54:00